Voltar ao catálogo

THORAD DELTA 1 DEB

AtivoSSO
NORAD 42612·DEBRIS·🇺🇸 United States

Lançado Nov 15, 1974 de Vandenberg Space Force Base

Loading…

Próximas Passagens (próximas 24 horas)

TLE

EnvelhecendoSource: Space-Track

Época: Sep 6, 2026, 05:07 UTC

1 42612U 74089GD  26249.21331579  .00000021  00000-0  33740-3 0  9990
2 42612 101.6219 249.6652 0083298 246.7407 112.4889 12.69909884572947

Acompanhe THORAD DELTA 1 DEB em tempo real com AllMySat

Download on the App Store